Location: Bogis-Bossey
(46.3500°N, 6.1667°E)
Time: 17:45:46
(UTC+00:00)

USA 229 - Pass Details

Date: 17 August 2022
Orbit: 929 x 1283 km, 63.4° (Epoch: 28 September)

Event Time Altitude Azimuth Distance (km) Brightness Sun altitude
Rises 20:32:06 0° 218° (SW) 3,600 6.4 -17.1°
Reaches altitude 10° 20:34:34 10° 218° (SW) 2,684 5.8 -17.4°
Maximum altitude 20:40:51 88° 310° (NW) 1,012 3.5 -18.2°
Drops below altitude 10° 20:47:42 10° 39° (NE) 2,910 6.1 -19.1°
Sets 20:50:28 0° 40° (NE) 3,923 6.7 -19.4°
